This is the latest recevied weather packets stored in our database for station/object KM4CNW. If no packets are shown the sender has not sent any weather packets the latest 10 day(s).
| Time | Temp. | Humidity | Pressure | Rain* | Wind** | Luminosity | Snow |
|---|---|---|---|---|---|---|---|
| 1777585413 | 23.33° C | 36% | 1003.5 hPa | 0 mm | - | 260 W/m² | - |
| 1777585108 | 23.33° C | 36% | 1003.5 hPa | 0 mm | - | 121 W/m² | - |
| 1777584804 | 24.44° C | 33% | 1003.4 hPa | 0 mm | - | 118 W/m² | - |
| 1777584502 | 25° C | 34% | 1003.3 hPa | 0 mm | - | 168 W/m² | - |
| 1777584199 | 25.56° C | 34% | 1003.2 hPa | 0 mm | - | 229 W/m² | - |
| 1777583898 | 25.56° C | 34% | 1003.5 hPa | 0 mm | - | 355 W/m² | - |
| 1777583594 | 25° C | 34% | 1003.3 hPa | 0 mm | - | 493 W/m² | - |
| 1777583292 | 24.44° C | 35% | 1002.9 hPa | 0 mm | - | 522 W/m² | - |
| 1777582988 | 24.44° C | 36% | 1003 hPa | 0 mm | - | 218 W/m² | - |
| 1777582686 | 25° C | 34% | 1003.1 hPa | 0 mm | - | 149 W/m² | - |
| 1777582380 | 25° C | 34% | 1003 hPa | 0 mm | - | 596 W/m² | - |
| 1777582079 | 24.44° C | 34% | 1003.1 hPa | 0 mm | - | 504 W/m² | - |
| 1777581774 | 25° C | 31% | 1003.1 hPa | 0 mm | - | 380 W/m² | - |
| 1777581472 | 25.56° C | 35% | 1003.3 hPa | 0 mm | - | 535 W/m² | - |
| 1777581168 | 25.56° C | 34% | 1003.1 hPa | 0 mm | - | 531 W/m² | - |
| 1777580868 | 25.56° C | 35% | 1003.2 hPa | 0 mm | - | 513 W/m² | - |
| 1777580563 | 25.56° C | 33% | 1003.2 hPa | 0 mm | - | 617 W/m² | - |
| 1777580259 | 26.11° C | 35% | 1003.2 hPa | 0 mm | - | 663 W/m² | - |
| 1777579956 | 25.56° C | 36% | 1003.1 hPa | 0 mm | - | 683 W/m² | - |
| 1777579651 | 25.56° C | 32% | 1002.9 hPa | 0 mm | - | 721 W/m² | - |
| 1777579350 | 24.44° C | 37% | 1003.2 hPa | 0 mm | - | 729 W/m² | - |
| 1777579046 | 24.44° C | 37% | 1003.4 hPa | 0 mm | - | 754 W/m² | - |
| 1777578741 | 25° C | 39% | 1003.4 hPa | 0 mm | - | 168 W/m² | - |
| 1777578441 | 26.11° C | 38% | 1003.6 hPa | 0 mm | - | 609 W/m² | - |
| 1777578136 | 25.56° C | 35% | 1003.6 hPa | 0 mm | - | 869 W/m² | - |
* Rain latest hour (hover to see other rain measurements)
** Current wind speed in m/s (hover to see current wind gust speed)